Temp
76 76 76 75 75 75 75 75 76 76 75 76 75 73 71 69 69 70 71 69 76 76 76 75 75 76 75 75 76 77 77 76 75
76 76 75 75 75 75 75 75 75 75 75 75 74 71 69 69 68 69 69 71 75 76 76 76 76 76 75 75 75 75 75 75 75
75 76 75 76 75 75 75 75 75 75 75 74 73 70 69 70 69 70 70 74 74 74 76 75 75 75 74 75 75 75 75 75 75
75 75 75 76 75 74 74 75 75 75 74 73 71 69 68 68 69 71 70 73 74 75 75 74 75 74 74 74 74 74 74 74 75
73 72 74 75 75 74 74 74 74 73 72 71 69 67 66 63 64 65 70 74 73 74 74 74 74 74 74 74 73 73 73 74 73
67 68 73 75 73 74 73 74 72 71 70 70 68 66 62 62 63 65 72 74 73 72 72 72 74 73 73 74 73 73 73 73 73
66 66 69 71 71 72 73 72 70 68 64 64 65 63 62 62 62 66 72 73 73 73 72 71 72 72 73 72 72 72 73 72 72
62 62 62 63 65 68 65 64 64 64 64 62 61 60 61 61 63 68 71 73 73 73 72 71 71 72 72 72 72 72 72 72 72
59 59 59 60 61 60 60 60 61 62 62 61 60 60 60 60 61 65 69 72 72 72 72 71 71 71 71 72 71 72 72 71 71
59 58 58 58 60 59 58 60 61 61 62 63 62 61 59 61 61 64 67 69 71 72 72 72 72 71 70 70 70 70 71 71 70
60 58 58 57 59 59 58 59 60 60 61 65 62 60 61 59 60 60 63 68 70 71 71 71 71 71 70 70 69 70 70 70 70
61 59 58 58 58 59 58 59 59 60 62 60 61 61 64 64 59 60 65 66 66 69 72 71 71 71 70 69 69 69 70 69 69
62 60 59 58 58 58 58 58 58 58 60 58 59 64 64 64 61 65 64 65 64 67 69 70 70 70 70 70 69 69 69 69 68
65 65 62 60 59 58 58 57 57 56 56 58 58 61 62 64 66 65 65 65 64 63 65 66 67 69 69 70 69 69 68 68 68
66 64 64 63 63 61 58 57 56 56 57 60 57 57 62 63 62 64 62 62 63 62 58 58 59 66 69 70 69 68 68 68 68
66 64 63 63 64 64 63 61 59 56 58 54 53 54 56 61 61 61 62 62 62 60 56 56 56 58 66 68 68 67 68 68 68
66 64 62 61 62 62 63 61 58 56 56 55 55 49 53 54 57 59 61 61 60 57 56 56 56 56 56 58 66 67 68 68 68
65 66 65 61 63 61 63 62 62 57 56 58 56 49 49 49 52 54 55 57 57 58 55 55 55 54 54 57 60 64 66 68 69
62 63 64 63 64 62 63 62 59 61 59 57 58 58 53 50 50 51 52 54 55 54 53 54 54 54 53 55 56 59 63 66 68
61 61 62 62 63 65 64 61 58 63 61 59 55 56 53 54 52 50 52 53 53 54 54 53 53 54 53 53 54 59 63 66 68
MSLP
1019.38 1019.49 1019.61 1019.97 1020.17 1020.41 1020.50 1020.52 1020.47 1020.61 1020.83 1021.00 1021.28 1021.45 1021.54 1021.65 1021.74 1021.84 1021.85 1021.91 1021.96 1022.05 1022.01 1022.09 1022.14 1021.97 1022.04 1021.79 1021.59 1021.30 1021.23 1021.29 1021.24
1019.68 1019.79 1020.02 1020.24 1020.45 1020.74 1020.87 1020.88 1020.96 1021.14 1021.32 1021.60 1021.82 1022.02 1022.02 1022.09 1022.28 1022.35 1022.35 1022.41 1022.54 1022.44 1022.54 1022.43 1022.41 1022.33 1022.27 1022.20 1021.98 1021.85 1021.67 1021.68 1021.66
1020.02 1020.05 1020.31 1020.52 1020.75 1021.05 1021.24 1021.28 1021.43 1021.61 1021.80 1022.09 1022.35 1022.45 1022.62 1022.71 1022.76 1022.89 1022.93 1022.83 1023.15 1023.19 1022.98 1023.02 1022.89 1022.86 1022.73 1022.47 1022.31 1022.17 1022.14 1022.01 1021.99
1020.31 1020.48 1020.68 1020.88 1021.16 1021.39 1021.53 1021.77 1021.90 1022.06 1022.25 1022.54 1022.76 1022.98 1023.16 1023.28 1023.35 1023.29 1023.37 1023.52 1023.62 1023.50 1023.53 1023.58 1023.44 1023.37 1023.23 1023.09 1022.94 1022.74 1022.69 1022.59 1022.42
1020.60 1020.85 1020.96 1021.20 1021.42 1021.73 1021.98 1022.10 1022.21 1022.38 1022.68 1022.97 1023.23 1023.48 1023.73 1023.93 1023.95 1023.99 1023.86 1023.94 1024.09 1024.16 1024.08 1024.03 1024.02 1024.00 1023.81 1023.62 1023.51 1023.38 1023.22 1023.09 1023.01
1020.98 1021.22 1021.25 1021.46 1021.79 1021.94 1022.19 1022.50 1022.67 1022.91 1023.15 1023.37 1023.64 1023.92 1024.31 1024.41 1024.48 1024.43 1024.21 1024.28 1024.52 1024.65 1024.77 1024.71 1024.47 1024.53 1024.45 1024.27 1024.00 1023.94 1023.80 1023.61 1023.56
1021.28 1021.53 1021.59 1021.83 1022.07 1022.25 1022.43 1022.84 1023.21 1023.51 1023.84 1024.04 1024.14 1024.33 1024.60 1024.77 1024.86 1024.66 1024.53 1024.78 1024.90 1025.07 1025.18 1025.25 1025.18 1025.11 1024.97 1024.99 1024.75 1024.53 1024.37 1024.19 1024.09
1021.67 1021.91 1022.14 1022.32 1022.36 1022.62 1022.89 1023.23 1023.64 1023.95 1024.19 1024.50 1024.69 1024.81 1024.86 1024.94 1024.97 1024.96 1025.09 1025.16 1025.29 1025.40 1025.54 1025.63 1025.67 1025.53 1025.51 1025.41 1025.38 1025.09 1025.02 1024.75 1024.60
1022.13 1022.39 1022.64 1022.78 1022.93 1023.17 1023.37 1023.64 1024.09 1024.29 1024.46 1024.71 1025.04 1025.19 1025.24 1025.35 1025.44 1025.37 1025.33 1025.50 1025.61 1025.77 1025.87 1026.00 1026.00 1026.04 1026.02 1025.96 1025.87 1025.62 1025.52 1025.50 1025.24
1022.30 1022.65 1022.91 1023.17 1023.33 1023.47 1023.67 1023.80 1024.36 1024.53 1024.72 1024.94 1025.17 1025.55 1025.75 1025.69 1025.89 1025.76 1025.74 1025.81 1025.99 1026.07 1026.17 1026.25 1026.34 1026.39 1026.47 1026.50 1026.37 1026.24 1026.13 1025.98 1025.81
1022.25 1022.74 1023.12 1023.40 1023.53 1023.77 1023.93 1024.08 1024.32 1024.83 1024.91 1025.10 1025.53 1025.81 1026.01 1026.09 1026.33 1026.30 1026.21 1026.22 1026.25 1026.42 1026.46 1026.56 1026.64 1026.77 1026.82 1026.94 1026.93 1026.77 1026.61 1026.57 1026.53
1022.09 1022.64 1023.13 1023.46 1023.74 1023.99 1024.26 1024.40 1024.83 1024.98 1025.13 1025.49 1025.78 1026.04 1026.17 1026.26 1026.71 1026.68 1026.52 1026.59 1026.67 1026.75 1026.69 1026.83 1026.92 1027.04 1027.19 1027.31 1027.35 1027.27 1027.13 1027.12 1027.06
1021.97 1022.49 1023.01 1023.40 1023.86 1024.23 1024.59 1024.77 1025.01 1025.41 1025.52 1025.90 1025.92 1026.04 1026.27 1026.54 1026.96 1026.89 1026.89 1026.92 1027.05 1027.07 1027.00 1027.16 1027.26 1027.26 1027.39 1027.50 1027.60 1027.65 1027.67 1027.56 1027.52
1021.70 1022.12 1022.65 1023.22 1023.82 1024.33 1024.64 1025.07 1025.20 1025.70 1025.96 1026.09 1026.16 1026.17 1026.39 1026.56 1026.85 1027.03 1027.17 1027.22 1027.36 1027.53 1027.45 1027.44 1027.52 1027.54 1027.60 1027.68 1027.82 1027.87 1027.99 1027.89 1027.89
1021.44 1022.01 1022.45 1022.97 1023.53 1024.11 1024.62 1025.01 1025.46 1025.78 1026.04 1026.42 1026.68 1026.64 1026.43 1026.61 1026.87 1027.04 1027.39 1027.41 1027.67 1027.86 1027.98 1027.97 1027.91 1027.77 1027.74 1027.85 1028.02 1028.10 1028.17 1028.18 1028.16
1021.10 1021.69 1022.29 1022.74 1023.20 1023.59 1024.10 1024.85 1025.34 1025.94 1026.27 1026.71 1027.22 1027.09 1027.01 1026.89 1026.99 1027.07 1027.27 1027.61 1027.82 1028.06 1028.30 1028.34 1028.31 1028.27 1028.07 1028.04 1028.15 1028.22 1028.21 1028.31 1028.38
1020.89 1021.38 1021.93 1022.38 1023.06 1023.46 1023.89 1024.38 1025.29 1025.80 1026.15 1026.47 1027.03 1027.66 1027.64 1027.39 1027.26 1027.23 1027.25 1027.42 1027.79 1028.21 1028.34 1028.49 1028.53 1028.55 1028.54 1028.42 1028.34 1028.36 1028.29 1028.41 1028.46
1020.47 1020.93 1021.46 1022.08 1022.40 1023.02 1023.45 1023.92 1024.44 1025.21 1025.89 1026.06 1026.41 1027.55 1027.53 1027.64 1027.60 1027.53 1027.60 1027.55 1027.54 1027.86 1028.25 1028.43 1028.57 1028.67 1028.73 1028.68 1028.61 1028.58 1028.58 1028.48 1028.36
1020.29 1020.63 1021.05 1021.60 1022.05 1022.47 1022.96 1023.37 1023.89 1024.44 1025.26 1025.93 1026.06 1026.15 1026.54 1027.40 1027.96 1027.85 1027.70 1027.73 1027.82 1027.63 1027.84 1028.09 1028.33 1028.48 1028.66 1028.72 1028.76 1028.72 1028.69 1028.65 1028.48
1020.03 1020.37 1020.78 1021.29 1021.57 1021.79 1022.35 1023.17 1023.74 1024.05 1024.60 1024.98 1025.84 1026.29 1026.52 1026.81 1027.30 1027.79 1027.76 1027.81 1027.55 1027.50 1027.62 1027.64 1027.86 1028.14 1028.40 1028.59 1028.69 1028.69 1028.65 1028.64 1028.56
Wind_Speed
13 16 15 19 18 15 15 14 16 17 18 18 18 16 15 13 8 7 11 8 17 16 15 16 15 16 15 13 15 16 16 17 16
13 12 18 17 18 15 15 16 19 15 18 19 19 18 17 10 9 8 9 11 17 15 16 15 15 15 15 13 14 13 14 15 15
14 15 10 15 18 15 14 17 18 16 17 18 17 17 16 9 9 8 8 17 15 14 14 14 14 13 15 20 18 17 17 16 14
14 14 13 12 15 14 12 13 13 13 15 16 16 16 14 9 6 7 5 15 13 13 14 13 13 12 14 18 17 19 18 16 16
12 11 11 14 10 13 12 10 14 15 16 16 15 14 13 7 6 4 6 16 14 12 12 12 12 12 11 15 17 18 17 17 16
8 6 12 14 8 12 12 14 14 13 14 14 13 11 4 5 4 3 12 16 12 14 13 11 12 12 11 12 13 17 17 17 17
6 6 8 10 8 10 13 13 12 8 4 4 7 4 5 4 4 2 13 12 12 13 12 12 11 11 9 10 9 15 16 17 17
3 3 3 3 5 4 6 6 4 6 5 4 4 4 4 3 3 5 13 11 12 12 12 10 9 10 11 11 6 11 14 16 18
4 3 4 4 3 4 4 3 5 6 5 6 6 5 4 3 3 3 9 10 10 10 12 10 10 10 9 9 9 8 13 14 16
4 4 4 3 3 3 3 3 5 4 5 5 6 5 4 6 3 2 8 10 10 9 8 9 9 9 11 10 8 10 10 13 14
5 4 4 4 3 3 4 4 3 3 4 5 5 5 5 5 4 3 3 8 7 8 9 10 9 9 8 9 7 8 10 11 12
6 5 4 4 3 5 3 1 3 3 3 5 5 4 4 5 3 2 3 3 7 5 8 5 7 8 7 8 7 7 7 8 7
7 5 4 4 4 4 3 1 1 2 4 4 4 4 3 5 3 2 3 2 3 4 9 8 7 7 5 6 5 5 6 6 7
7 6 6 6 4 4 4 1 1 3 3 4 4 4 4 5 3 2 3 4 4 2 6 6 3 5 6 6 5 5 5 4 6
7 5 6 6 5 4 4 3 2 3 4 4 3 3 2 4 2 5 1 2 4 2 3 2 2 4 4 2 1 1 3 2 5
8 6 7 6 7 6 7 3 3 2 3 5 3 4 4 1 2 3 4 3 3 3 1 0 1 2 1 6 2 2 2 1 3
8 8 8 9 5 6 7 5 3 2 3 3 3 1 3 2 1 1 3 5 3 3 3 2 2 1 0 2 3 1 1 2 3
9 10 8 8 8 8 9 8 7 4 4 3 4 2 4 0 1 2 2 3 4 4 4 4 4 3 2 3 3 4 3 6 4
7 9 10 9 7 8 8 6 5 5 7 1 1 2 5 3 1 2 3 3 4 5 5 5 5 5 4 5 5 6 6 7 4
7 8 9 9 7 8 9 8 6 6 6 4 3 1 2 2 3 2 3 1 4 4 4 5 5 6 5 4 5 8 8 8 9
Wind_Direction
104 106 108 105 105 104 97 85 101 110 116 109 96 82 75 66 63 67 81 73 76 78 74 77 77 70 86 79 72 67 58 60 60
110 103 105 113 103 103 92 93 93 96 96 90 90 83 73 67 60 65 71 77 74 79 81 77 84 86 83 78 81 76 72 69 72
114 100 104 110 109 108 96 92 101 98 97 98 96 82 79 64 64 71 70 78 73 77 82 75 78 77 58 66 66 71 63 67 72
120 111 123 103 112 106 91 95 98 109 99 95 87 80 77 68 61 66 72 65 86 79 85 76 86 86 67 70 65 59 59 56 62
121 122 136 115 112 112 102 98 93 93 102 98 90 82 77 69 55 49 87 89 84 77 81 82 78 79 62 64 66 62 59 57 52
114 124 141 132 132 124 115 103 86 92 103 103 92 87 77 72 67 54 89 87 88 88 78 67 88 82 73 67 57 63 59 59 54
123 120 115 124 130 123 118 103 91 83 81 77 75 88 100 94 93 89 79 93 92 88 85 72 70 82 84 69 36 66 61 61 58
107 101 79 90 79 105 101 95 89 90 109 87 83 90 83 74 68 82 93 96 91 99 99 90 75 78 76 80 61 54 64 67 62
122 114 110 106 100 108 116 128 113 104 102 121 110 93 94 91 75 101 103 103 107 93 94 88 87 77 76 71 57 48 55 58 61
134 133 126 120 107 122 132 142 116 108 108 120 116 110 89 99 83 75 100 108 107 109 107 114 87 82 75 72 56 52 49 52 51
147 146 146 139 140 138 147 152 122 115 120 124 115 119 101 97 65 85 99 105 106 112 95 96 98 77 87 77 70 43 57 60 46
155 153 151 161 154 138 103 75 85 99 105 120 122 116 126 105 95 82 103 86 100 118 99 111 105 94 76 80 65 62 58 56 61
158 156 162 159 147 138 135 143 74 138 135 147 138 132 130 115 136 129 93 68 107 99 115 100 102 106 110 108 87 74 63 57 43
163 170 162 157 150 145 156 126 127 133 126 144 133 153 138 142 153 123 132 95 79 72 45 97 81 122 96 90 78 79 68 59 39
164 157 159 161 167 162 161 137 88 118 144 93 69 25 148 141 190 158 107 145 127 100 82 45 13 128 140 100 63 94 94 49 44
166 159 157 166 183 180 166 135 148 87 139 105 30 34 9 127 189 155 158 183 135 133 121 86 17 348 190 135 190 75 129 123 52
165 169 173 172 163 162 166 146 124 104 208 126 109 90 341 340 49 212 190 173 151 165 185 212 237 275 355 237 191 259 231 254 147
176 176 179 180 175 174 181 168 165 156 192 236 136 146 211 105 355 255 256 224 173 180 195 216 225 226 229 263 239 220 247 255 227
177 179 176 179 186 178 179 186 169 140 179 169 58 51 137 170 238 293 263 229 243 211 193 196 214 211 216 225 226 245 235 260 232
184 184 176 188 181 183 186 170 162 182 169 168 147 126 68 79 128 195 241 284 237 225 219 203 189 202 208 217 231 238 236 240 257